Regional Weather Roundup
Issued by NWS

Home | Current Version | Previous Version | Graphics & Text | Print | Product List | Glossary On
Versions: 1 2 3 4 5 6 7 8 9 10 11 12 13 14 15 16 17 18 19 20 21 22 23 24 25 26 27 28 29 30 31 32 33 34 35 36 37 38 39 40 41 42 43 44 45 46 47 48 49 50
000
ASUS43 KMKX 222020
RWRWI

WISCONSIN REGIONAL WEATHER ROUNDUP
NATIONAL WEATHER SERVICE MILWAUKEE/SULLIVAN WI
200 PM CST SUN JAN 22 2017

NOTE: "FAIR" INDICATES FEW OR NO CLOUDS BELOW 12,000 FEET WITH NO
SIGNIFICANT WEATHER AND/OR OBSTRUCTIONS TO VISIBILITY.

WIZ001-002-006>008-014>016-023>028-222100-
NORTHWEST WISCONSIN

CITY           SKY/WX    TMP DP  RH WIND       PRES   REMARKS
SUPERIOR ARPT  CLOUDY    37  36  94 NW3       29.69S
ASHLAND        CLOUDY    36  35  96 CALM      29.69R FOG
HAYWARD        CLOUDY    38  34  85 N5        29.66S WCI  34
SIREN          CLOUDY    38  36  92 W5        29.69S WCI  34
CUMBERLAND     CLOUDY    34  34 100 NW7       29.67S WCI  28
RICE LAKE      CLOUDY    37  35  93 NW3       29.69S
CHETEK         CLOUDY    35  35 100 NW3       29.68R
LADYSMITH      CLOUDY    36  36  99 NW6       29.66S WCI  31
EAU CLAIRE     CLOUDY    37  35  92 NW5       29.67S WCI  33
MENOMONIE        N/A    N/A N/A N/A MISG        N/A
NEW RICHMOND   CLOUDY    37  37 100 NW8       29.70R WCI  30
OSCEOLA        CLOUDY    38  38 100 NW6       29.73S WCI  34
$$

WIZ003>005-009-010-017-018-222100-
NORTH CENTRAL WISCONSIN

CITY           SKY/WX    TMP DP  RH WIND       PRES   REMARKS
MANITOWISH WTR CLOUDY    34  34 100 NW3       29.62S
ARBOR VITAE    FOG       37  36  98 NW6       29.62S VSB 1/2 WCI  32
WOODRUFF       FOG       37  36  98 NW6       29.62S VSB 1/2 WCI  32
RHINELANDER    CLOUDY    38  38 100 NW6       29.62R FOG     WCI  33
EAGLE RIVER    CLOUDY    37  37 100 W5        29.60S FOG     WCI  33
LAND O LAKES   CLOUDY    37  37 100 W3        29.62S FOG
PHILLIPS       CLOUDY    34  34 100 NW5       29.63S FOG     WCI  30
TOMAHAWK       CLOUDY    36  36  97 W3        29.63R
MEDFORD        CLOUDY    35  35  99 NW6       29.63S FOG     WCI  30
MERRILL        CLOUDY    37  37 100 CALM        N/A
$$

WIZ029-030-035-036-043>047-222100-
CENTRAL WISCONSIN

CITY           SKY/WX    TMP DP  RH WIND       PRES   REMARKS
WAUSAU         CLOUDY    37  36  96 W5        29.61S WCI  33
MOSINEE        CLOUDY    36  36 100 NW3       29.63S
MARSHFIELD     CLOUDY    36  34  92 NW7       29.62S FOG     WCI  30
STEVENS POINT  CLOUDY    35  35 100 W5        29.64S FOG     WCI  31
WAUPACA        CLOUDY    40  39  97 CALM      29.64R
WAUTOMA        CLOUDY    39  38  96 NW6       29.65R WCI  35
WISC RAPIDS    CLOUDY    38  37  97 W6        29.65S WCI  33
CAMP DOUGLAS   CLOUDY    37  37 100 W5        29.65S WCI  34
$$

WIZ011>013-019>022-031-037>040-048>050-222100-
NORTHEAST WISCONSIN

CITY           SKY/WX    TMP DP  RH WIND       PRES   REMARKS
ANTIGO         CLOUDY    36  36 100 NW6       29.61S WCI  31
SHAWANO        CLOUDY    41  40  96 CALM      29.63R
OCONTO         CLOUDY    38  37  98 N3        29.62S
STURGEON BAY   FOG       37  37 100 W3        29.63S VSB 1/2
GREEN BAY      CLOUDY    40  39  97 W7        29.62S FOG
MANITOWOC      CLOUDY    39  37  93 MISG      29.64R FOG
APPLETON         N/A     37  37 100 W3        29.60S FOG
CLINTONVILLE   CLOUDY    37  37 100 W6        29.63R WCI  33
OSHKOSH        CLOUDY    38  37  97 W7        29.62S WCI  33
$$

WIZ032>034-041-042-053>061-222100-
SOUTHWEST WISCONSIN

CITY           SKY/WX    TMP DP  RH WIND       PRES   REMARKS
LA CROSSE      CLOUDY    40  36  86 NW7       29.68S
SPARTA         CLOUDY    36  36 100 CALM      29.67F
VIROQUA        CLOUDY    35  35 100 NW6       29.65S VSB 1/4 WCI  30
BOSCOBEL       CLOUDY    41  36  82 W3        29.67S
PRAIRIE DU CHI CLOUDY    38  37  97 NW3       29.67S
PLATTEVILLE    CLOUDY    41  41 100 W7        29.65S
$$

WIZ056-057-062-063-064-067-068-222100-
SOUTH CENTRAL WISCONSIN

CITY           SKY/WX    TMP DP  RH WIND       PRES   REMARKS
REEDSBURG      CLOUDY    38  38 100 NW5       29.65R WCI  34
BARABOO/DELLS  CLOUDY    37  37  99 W3        29.64S FOG
LONE ROCK      CLOUDY    39  37  92 W3        29.66S FOG
MINERAL POINT  CLOUDY    41  39  93 NW5       29.64S
MADISON        CLOUDY    41  37  86 NW5       29.63S
MIDDLETON      CLOUDY    41  41 100 NW6       29.64S
WATERTOWN      CLOUDY    40  39  97 W3        29.63R
MONROE         CLOUDY    41  36  81 NW7       29.63R
JANESVILLE     CLOUDY    43  39  87 W6        29.63S FOG
$$

WIZ051-052-058>065-066-070>072-222100-
SOUTHEAST WISCONSIN

CITY           SKY/WX    TMP DP  RH WIND       PRES   REMARKS
MILWAUKEE      CLOUDY    45  37  73 W3        29.63R
WAUKESHA       CLOUDY    41  37  87 NW3       29.63S
MILWAUKEE/TIMM CLOUDY    43  36  75 CALM      29.63
RACINE         CLOUDY    44  37  76 NW6       29.64R
KENOSHA        CLOUDY    43  38  82 W6        29.62S
FOND DU LAC    LGT RAIN  40  36  86 W6        29.63R
SHEBOYGAN      PTSUNNY   43  38  82 NW8       29.62R
WEST BEND      CLOUDY    41  37  87 NW5       29.63R
JUNEAU         CLOUDY    39  38  99 W5        29.64S
$$

LSZ147-162-222100-
LAKE SUPERIOR

STATION/POSITION TIME  TEMP    WIND        PRES    WAVE
                       AIR SEA DIR/SP/G            HT/PER
                 (UTC) (F)     (DEG/KT/KT) (MB)    (FT/S)
DEVILS ISLAND    2000   36     340/  3/  3 1005.8R
PORT WING        1940   35     260/  4/  6 1005.4S
SAXON HARBOR     1940   35     300/  6/  8 1005.1R
$$

LMZ867-665-643>646-222100-
LAKE MICHIGAN

STATION/POSITION TIME  TEMP    WIND        PRES    WAVE
                       AIR SEA DIR/SP/G            HT/PER
                 (UTC) (F)     (DEG/KT/KT) (MB)    (FT/S)
NORTHPORT PIER   1940   34     320/  4/  5 1003.4S
SISTER BAY       1950   37        CALM       N/A
KEWAUNEE LAKESHO 1954   38     270/  5/  7 1002.8R
SHEBOYGAN LAKESH 2000   37      90/  2/  3 1003.2R
PORT WASHINGTON  1930   47     320/  3/  6 1004.1S
KENOSHA   LAKESH 2000   38     360/  2/  3 1003.4
$$

TC  - TEMPERATURE IN CELSIUS
VSB - VISIBILITY IN STATUTE MILES
WCI - WIND CHILL INDEX
HX  - HEAT INDEX





USA.gov is the U.S. government's official web portal to all federal, state and local government web resources and services.